Regional Weather Roundup
Issued by NWS Upton, NY

Current Version | Previous Version | Text Only | Print | Product List | Glossary On
Versions: 1 2 3 4 5 6 7 8 9 10 11 12 13 14 15 16 17 18 19 20 21 22 23 24 25 26 27 28 29 30 31 32 33 34 35 36 37 38 39 40 41 42 43 44 45 46 47 48 49 50
436 ASUS41 KOKX 250808 RWROKX REGIONAL WEATHER ROUNDUP NATIONAL WEATHER SERVICE NEW YORK NY 300 AM EST SAT FEB 25 2017 NOTE: "FAIR" INDICATES FEW OR NO CLOUDS BELOW 12,000 FEET WITH NO SIGNIFICANT WEATHER AND/OR OBSTRUCTIONS TO VISIBILITY. NYZ071-072-176-178-NJZ106-104-250900- NEW YORK CITY METRO AREA CITY SKY/WX TMP DP RH WIND PRES REMARKS Central Park CLOUDY 56 53 90 VRB3 29.84F Wall St Helipt NOT AVBL LaGuardia APRT CLOUDY 53 50 89 S6 29.82F Kennedy INTL FOG 50 50 100 S3 29.85F VSB 1/4 Breezy Point N/A 45 N/A N/A SE7 N/A Newark/Liberty MOCLDY 58 55 90 S5 29.82F Teterboro CLOUDY 59 56 89 S7 29.81F $$ NYZ177-179-078>081-250900- LONG ISLAND NEW YORK CITY SKY/WX TMP DP RH WIND PRES REMARKS Jones Beach N/A 46 N/A N/A SE2 N/A Matinecock PT NOT AVBL Farmingdale FOG 51 51 100 S6 29.84F VSB 1/2 MacArthur/ISP FOG 50 50 100 S3 29.84F VSB 1/4 Shirley FOG 50 50 100 S5 29.85F VSB 1/4 Westhampton CLOUDY 51 50 96 S6 29.87F FOG Southampton NOT AVBL Bridgehampton NOT AVBL East Hampton N/A 53 52 96 S7 29.86F Montauk N/A 50 50 100 S6 29.88F $$ NYZ052-065-067-250900- HUDSON VALLEY CITY SKY/WX TMP DP RH WIND PRES REMARKS White Plains FOG 53 52 96 SE6 29.82F VSB 1/4 Newburgh NOT AVBL Montgomery CLOUDY 56 53 90 S7 29.76F Poughkeepsie CLOUDY 60 55 83 S6 29.78F Albany MOCLDY 60 53 77 S13 29.73F $$ NJZ001-105-106-008-010-013-015-019>022-104-250900- NEW JERSEY CITY SKY/WX TMP DP RH WIND PRES REMARKS Newark/Liberty MOCLDY 58 55 90 S5 29.82F Teterboro CLOUDY 59 56 89 S7 29.81F Caldwell CLOUDY 60 56 86 SW3 29.82S Somerville MOCLDY 57 55 93 S3 29.79F Linden NOT AVBL Sussex CLOUDY 62 55 77 S6 29.78F Andover N/A 60 54 80 S6 29.78F Trenton MOCLDY 57 56 96 S8 29.80F Millville PTCLDY 53 53 100 CALM 29.81F Atlantic City CLOUDY 54 53 97 S7 29.82F FOG Wrightstown CLEAR 55 54 96 S5 29.79F Toms River FOG 53 52 96 S5 29.83F VSB 1 Belmar CLOUDY 54 54 100 SE3 29.83F FOG $$ PAZ047>061-062-071-250900- EASTERN PENNSYLVANIA CITY SKY/WX TMP DP RH WIND PRES REMARKS Philadelphia MOCLDY 57 54 89 S5 29.81F Allentown MOCLDY 62 55 77 S9 29.76F Scranton CLOUDY 62 57 83 S16G25 29.70F $$ CTZ002-004>006-009-010-012-RIZ004-006-007-MAZ004-011-015-250900- SOUTHERN NEW ENGLAND IN CT CITY SKY/WX TMP DP RH WIND PRES REMARKS Bradley INTL CLOUDY 56 54 93 S12 29.83S Hartford CLOUDY 56 55 97 S7 29.84F Danbury CLOUDY 58 55 90 VRB7 29.84S Wtrbury/Oxford CLOUDY 55 52 88 S7 29.85S VSB 1/4 Bridgeport FOG 53 51 93 SE5 29.84F VSB 1/4 Meriden FOG 55 53 93 S6 29.84F VSB 1/4 New Haven FOG 50 50 100 CALM 29.85F VSB 1/4 Chester FOG 54 54 100 S5 29.86F VSB<1/4 Groton FOG 47 47 100 CALM 29.86F VSB 1/4 Wilimantic CLOUDY 59 57 93 S7 29.86F IN RI CITY SKY/WX TMP DP RH WIND PRES REMARKS Providence CLOUDY 51 49 92 S5 29.87F Block Island MOCLDY 50 50 100 S13 29.88F Westerly CLOUDY 51 49 92 S5 29.88F IN MA CITY SKY/WX TMP DP RH WIND PRES REMARKS Boston CLOUDY 54 54 100 S8 29.86F Worcester CLOUDY 56 53 90 S8 29.84F Westfield CLOUDY 55 55 100 S7 29.81F Provincetown CLOUDY 49 48 97 S10 29.90F FOG Nantucket CLEAR 46 45 96 S6 29.92R $$ ANZ330-335-338-340-345-350-353-355-250900- COASTAL MARINE OBSERVATIONS STATION/POSITION TIME SKY/WX TEMP WIND PRES VSBY WAVE AIR SEA DIR/SP/G HT/PER (UTC) (F) (DEG/KT/KT) (MB) (MI) (FT/S) NY HARB ENTRANCE 0650 47 44 170/ 10/ 10 1010.4 3/ 9 20 S FIRE ISLAND 0750 48 44 160/ 8/ 10 1010.2 3/11 GREAT SOUTH BAY NOT AVBL 23 SSW MONTAUK P 0650 48 44 1012.3 3/10 15 E BARNEGAT LI 0730 44 N/A 4/11 HUDSON CANYON 0650 47 1011.5 4/ 9 KINGS POINT 0742 48 41 1010.1 EXECUTION ROCKS NOT AVBL CENTRAL LI SOUND 0730 46 190/ 6/ 8 N/A 0 EASTERN LI SOUND NOT AVBL ROBBINS REEF 0748 48 180/ 8/ 9 1010.0 $$ >>>>>>>>>>>>>>>>>>>>>>>>>>>> KEY <<<<<<<<<<<<<<<<<<<<<<<<<<< > < > SKY/WX - Sky Condition/Present Weather < > TMP - Temperature in Fahrenheit < > DP - Dew Point in Fahrenheit < > RH - Relative Humidity in Percent < > WIND - Direction (from) and Speed in MPH < > PRES - Mean Sea Level Pressure (inches of Hg) < > WCI - Wind Chill Index < > VSB - VISIBILITY IN MILES < > HX - HEAT INDEX < > TC - TEMPERATURE IN CELSIUS < > VRB - VARIABLE WIND DIRECTION < > < >>>>>>>>>>>>>>>>>>>>>>>>>>>> KEY <<<<<<<<<<<<<<<<<<<<<<<<<<<

USA.gov is the U.S. government's official web portal to all federal, state and local government web resources and services.